STARLINK-36511, 67451

Orbit data source: Space-Track

STARLINK-36511, 67451 is a payload satellite owned by SpaceX/Seattle (US) in LEO that was launched on Wed, 14 Jan 2026 UTC via an FALCON 9 launch vehicle from the Air Force Eastern Test Range (AFETR). Payload-class satellites include a variety of spacecraft equipped with specific instruments for various scientific and technological missions. These include communications satellites like Starlink; space stations such as the ISS; scientific satellites like the Hubble; Earth observation satellites from companies like Planet Labs, Umbra, and HawkEye 360; GPS; miniature CubeSats for education and research; and military/defense satellites.

Loading next visibility...
Identifier
67451, 2026-008G
Orbit
LEO
Country
Flag of USUS
Related business
Manufacturer
SpaceX/Seattle
Mission
Operational spacecraft
Bus & Motor
STARLINK V2MO, Unknown motor
Mass
575 kg wet, ~530 kg dry
Launch date (UTC)
2026-01-14 (2 months ago)
Launch vehicle
FALCON 9
Launch site
Air Force Eastern Test Range (AFETR)
Object type
Payload
Rocket body
Debris
Shape & HBR
Unknown shape, 17.7 m
Radar Cross Section
RCS unknown

Expand to show TLE details & history
Last TLE update: 7 hours ago

TLE from 7 hours ago
0 STARLINK-36511
1 67451U 26008G   26062.90440420  .00033299  00000-0  12130-2 0  9993
2 67451  43.0012 238.2314 0001903 266.2804  93.7830 15.27609579  8682
Epoch: 2026-03-03T21:42Z
TLE epoch observation values (Epoch: 2026-03-03T21:42:20.522Z)
Latitude
-0.00004°
Longitude
110.96908°
Altitude
482.822 km
Speed
7.626 km/s
True Right ascension
15h 52m 55s
True Declination
0° 00' 00"
Sunlit
Object was in daylight at epoch
Visualization orbit readout
Latitude
Unknown
Longitude
Unknown
Altitude
Unknown
Speed
Unknown
Apparent Right ascension
Unknown
Apparent Declination
Unknown
Sunlit
N/A
Visualization observer readout
Local Sidereal Time
08:42:54
Azimuth
Unknown
Elevation
Unknown
Doppler factor
Unknown
Orbital elements
Apogee altitude
486.212 km
Perigee altitude
483.599 km
Semi-major axis
6,863.043 km
Eccentricity
0.00019
Inclination
43.0012°
RAAN
238.2314°
Arg. of periapsis
266.2804°
True anomaly
93.80476°
Mean anomaly
93.783°
Eccentric anomaly
93.79388°
Mean motion
3.8174 °/min
Orbital period
94.3 mins
BSTAR
0.001213
Loading maneuver chart data...
Computing Atmospheric mass density...
Loading historical data...
Loading historical data...
Loading historical data...
Loading historical data...
Loading historical data...
Loading historical data...
Loading historical data...

Documentation

Showing up to 5 results
|